Flag for United Kingdom Weather past 2 weeks in Cardiff, Wales, United Kingdom

Now
50 °F

Low clouds.


Feels Like: 43 °F
Forecast: N/A
Wind: 22 mph from West

Location: Wales Airport

Current Time: Feb 28, 2015 at 9:18:42 PM

Latest Report: Feb 28, 2015 at 8:50 PM


Visibility: N/A

Pressure: 29.45 "Hg

Humidity: 94%

Dew point: 48 °F

Location of CardiffLocation

Historic Weather in Cardiff — Graph

°F

Cardiff temperature yesterday

Maximum temperature yesterday: 46 °F (at 11:20 AM)
Minimum temperature yesterday: 34 °F (at 2:20 AM)
Average temperature yesterday: 41 °F

Past Weeks' High & Low Weather Summary

 TemperatureHumidityPressure
High52 °F (Feb 25, 12:50 PM)100% (Feb 14, 12:20 AM)30.74 "Hg (Feb 14, 12:20 AM)
Low32 °F (Feb 22, 3:50 AM)49% (Feb 26, 4:20 PM)29.24 "Hg (Feb 23, 12:20 PM)
Average43 °F87%29.89 "Hg
* Reported Feb 13 8:20 PM — Feb 28 8:20 PM, Cardiff, Weather by CustomWeather, © 2015

Note: Actual official high and low records may vary slightly from our data, if they occured in-between our weather recording intervals... More about our weather records

Advertising

Cardiff weather history for previous 24 hours

 ConditionsComfort  
Time TempWeatherWind HumidityBarometerVisibility
8:20 PM
Sat, Feb 28
52 °FLow clouds.23 mph94%29.45 "HgN/A
7:50 PM50 °FDrizzle. Low clouds.13 mph100%29.45 "Hg2 mi
7:20 PM48 °FRain. Overcast.7 mph94%29.47 "Hg2 mi
6:50 PM48 °FLight rain. Overcast.7 mph94%29.47 "Hg3 mi
6:20 PM46 °FRain. Overcast.8 mph100%29.47 "Hg3 mi
5:50 PM48 °FRain. Overcast.12 mph87%29.50 "Hg3 mi
5:20 PM48 °FMostly cloudy.10 mph82%29.53 "HgN/A
4:50 PM48 °FOvercast.9 mph87%29.56 "HgN/A
4:20 PM48 °FCool.7 mph87%29.59 "HgN/A
3:50 PM48 °FLight rain. Overcast.7 mph87%29.62 "HgN/A
3:20 PM48 °FLight rain. Scattered clouds.7 mph87%29.62 "HgN/A
2:50 PM50 °FLight rain. Scattered clouds.8 mph82%29.65 "HgN/A
2:20 PM50 °FOvercast.9 mph82%29.65 "HgN/A
1:50 PM52 °FOvercast.10 mph77%29.68 "HgN/A
1:20 PM50 °FOvercast.12 mph82%29.68 "HgN/A
12:50 PM50 °FOvercast.12 mph82%29.71 "HgN/A
12:20 PM48 °FOvercast.13 mph87%29.74 "HgN/A
11:50 AM50 °FOvercast.10 mph82%29.74 "HgN/A
11:20 AM48 °FOvercast.10 mph94%29.74 "HgN/A
10:50 AM48 °FOvercast.10 mph94%29.74 "HgN/A
10:20 AM48 °FLow clouds.10 mph94%29.77 "HgN/A
9:50 AM48 °FMostly cloudy.10 mph94%29.77 "HgN/A
9:20 AM46 °FDrizzle. Low clouds.10 mph100%29.77 "Hg1 mi
8:50 AM46 °FMostly cloudy.12 mph100%29.77 "HgN/A
8:20 AM48 °FOvercast.10 mph94%29.77 "HgN/A
7:50 AM46 °FOvercast.8 mph93%29.80 "HgN/A
7:20 AM46 °FOvercast.6 mph100%29.80 "HgN/A
6:50 AM46 °FMostly cloudy.6 mph93%29.80 "HgN/A
6:20 AM46 °FMostly cloudy.7 mph93%29.80 "HgN/A
5:50 AM46 °FLow clouds.9 mph93%29.80 "HgN/A
5:20 AM45 °FOvercast.9 mph100%29.80 "HgN/A
4:50 AM45 °FOvercast.8 mph100%29.83 "HgN/A
4:20 AM45 °FMostly cloudy.8 mph100%29.83 "HgN/A
3:20 AM45 °FOvercast.9 mph93%29.86 "HgN/A
2:50 AM46 °FMostly cloudy.10 mph87%29.86 "HgN/A
2:20 AM46 °FOvercast.10 mph87%29.89 "HgN/A
1:50 AM46 °FMostly cloudy.10 mph87%29.89 "HgN/A
1:20 AM45 °FOvercast.9 mph87%29.92 "HgN/A
12:50 AM45 °FOvercast.9 mph87%29.92 "HgN/A
12:20 AM45 °FOvercast.9 mph87%29.95 "HgN/A
11:50 PM
Fri, Feb 27
45 °FMostly cloudy.6 mph87%29.95 "HgN/A
11:20 PM45 °FOvercast.6 mph81%29.98 "HgN/A
10:50 PM45 °FMostly cloudy.5 mph81%29.98 "HgN/A
10:20 PM43 °FPassing clouds.6 mph87%30.01 "HgN/A
9:50 PM43 °FPassing clouds.7 mph87%30.01 "HgN/A
9:20 PM43 °FQuite cool.8 mph87%30.01 "HgN/A
Weather by CustomWeather, © 2015

See weather overviewHow to use our weather pages